,,Stat6,,Stat2,,Stat8,,Stat9,,Stat10,,Wind1,,Wind1,
time,status,PA1M_AVG,status,PR1M_SUM,status,RH1M_AVG,status,SR1M_AVG,status,TA1M_AVG,status,W1dAve1m,status,W1sAve1m,
2007-05-28, 00:00:00,VALID,916.93,VALID,0,VALID,100,VALID,0.0339617,VALID,19.8843,VALID,132,VALID,1.25591,
2007-05-28, 00:01:00,VALID,916.89,VALID,0,VALID,100,VALID,0.0339617,VALID,19.8548,VALID,130,VALID,0.792302,
2007-05-28, 00:02:00,VALID,916.882,VALID,0,VALID,100,VALID,0.0509425,VALID,19.8321,VALID,133,VALID,0.710938,
2007-05-28, 00:03:00,VALID,916.858,VALID,0,VALID,100,VALID,0.0339617,VALID,19.8191,VALID,142,VALID,0.724144,
2007-05-28, 00:04:00,VALID,916.852,VALID,0,VALID,100,VALID,0,VALID,19.8056,VALID,144,VALID,1.23921,
2007-05-28, 00:05:00,VALID,916.861,VALID,0,VALID,100,VALID,0.0169808,VALID,19.8323,VALID,137,VALID,1.56517,
2007-05-28, 00:06:00,VALID,916.872,VALID,0,VALID,100,VALID,0.0339617,VALID,19.8418,VALID,139,VALID,1.58854,
2007-05-28, 00:07:00,VALID,916.869,VALID,0,VALID,100,VALID,0.0169808,VALID,19.8448,VALID,127,VALID,1.74676,
2007-05-28, 00:08:00,VALID,916.883,VALID,0,VALID,100,VALID,0.0509425,VALID,19.861,VALID,133,VALID,1.46214,
2007-05-28, 00:09:00,VALID,916.887,VALID,0,VALID,100,VALID,0.0509425,VALID,19.8648,VALID,123,VALID,1.30859,
2007-05-28, 00:10:00,VALID,916.869,VALID,0,VALID,100,VALID,0.0339617,VALID,19.8513,VALID,125,VALID,1.39901,
2007-05-28, 00:11:00,VALID,916.859,VALID,0,VALID,100,VALID,0.0849042,VALID,19.8381,VALID,128,VALID,1.44904,
2007-05-28, 00:12:00,VALID,916.852,VALID,0,VALID,100,VALID,0.0339617,VALID,19.8248,VALID,145,VALID,1.20126,
2007-05-28, 00:13:00,VALID,916.832,VALID,0,VALID,100,VALID,0.101885,VALID,19.8116,VALID,145,VALID,1.11105,
2007-05-28, 00:14:00,VALID,916.827,VALID,0,VALID,100,VALID,0,VALID,19.8064,VALID,148,VALID,1.05149,
2007-05-28, 00:15:00,VALID,916.81,VALID,0,VALID,100,VALID,-0.0849042,VALID,19.8046,VALID,135,VALID,0.906977,
2007-05-28, 00:16:00,VALID,916.799,VALID,0,VALID,100,VALID,-0.0339617,VALID,19.7847,VALID,145,VALID,0.748935,
2007-05-28, 00:17:00,VALID,916.795,VALID,0,VALID,100,VALID,-0.0679233,VALID,19.7647,VALID,140,VALID,0.807893,
2007-05-28, 00:18:00,VALID,916.78,VALID,0,VALID,100,VALID,-0.0849042,VALID,19.7657,VALID,150,VALID,0.980923,
2007-05-28, 00:19:00,VALID,916.792,VALID,0,VALID,100,VALID,-0.0679233,VALID,19.7487,VALID,138,VALID,0.951758,
2007-05-28, 00:20:00,VALID,916.773,VALID,0,VALID,100,VALID,-0.0849042,VALID,19.7395,VALID,150,VALID,1.34048,
2007-05-28, 00:21:00,VALID,916.759,VALID,0,VALID,100,VALID,-0.0849042,VALID,19.739,VALID,153,VALID,1.18941,
2007-05-28, 00:22:00,VALID,916.744,VALID,0,VALID,100,VALID,-0.0679233,VALID,19.7327,VALID,150,VALID,1.37012,
2007-05-28, 00:23:00,VALID,916.726,VALID,0,VALID,100,VALID,-0.0509425,VALID,19.7295,VALID,143,VALID,0.990854,
2007-05-28, 00:24:00,VALID,916.718,VALID,0,VALID,100,VALID,-0.0509425,VALID,19.6998,VALID,146,VALID,0.90483,
2007-05-28, 00:25:00,VALID,916.716,VALID,0,VALID,100,VALID,-0.0509425,VALID,19.7003,VALID,144,VALID,1.42225,
2007-05-28, 00:26:00,VALID,916.702,VALID,0,VALID,100,VALID,-0.0509425,VALID,19.6776,VALID,139,VALID,1.04043,
2007-05-28, 00:27:00,VALID,916.691,VALID,0,VALID,100,VALID,-0.0849042,VALID,19.6516,VALID,141,VALID,1.29706,
2007-05-28, 00:28:00,VALID,916.672,VALID,0,VALID,100,VALID,-0.0849042,VALID,19.6511,VALID,145,VALID,1.67899,
2007-05-28, 00:29:00,VALID,916.666,VALID,0,VALID,100,VALID,-0.0339617,VALID,19.6586,VALID,141,VALID,1.64172,
2007-05-28, 00:30:00,VALID,916.65,VALID,0,VALID,100,VALID,-0.0339617,VALID,19.6479,VALID,141,VALID,1.44717,
2007-05-28, 00:31:00,VALID,916.63,VALID,0,VALID,100,VALID,-0.0679233,VALID,19.6479,VALID,139,VALID,1.48526,
2007-05-28, 00:32:00,VALID,916.615,VALID,0,VALID,100,VALID,-0.0509425,VALID,19.6449,VALID,137,VALID,1.07759,
2007-05-28, 00:33:00,VALID,916.593,VALID,0,VALID,100,VALID,-0.0679233,VALID,19.6441,VALID,133,VALID,1.46548,
2007-05-28, 00:34:00,VALID,916.574,VALID,0,VALID,100,VALID,-0.0339617,VALID,19.6412,VALID,134,VALID,1.92915,
2007-05-28, 00:35:00,VALID,916.56,VALID,0,VALID,100,VALID,-0.0679233,VALID,19.6446,VALID,123,VALID,1.27663,
2007-05-28, 00:36:00,VALID,916.524,VALID,0,VALID,100,VALID,-0.0169808,VALID,19.6319,VALID,115,VALID,1.30649,
2007-05-28, 00:37:00,VALID,916.495,VALID,0,VALID,100,VALID,-0.0169808,VALID,19.6154,VALID,129,VALID,1.49531,
2007-05-28, 00:38:00,VALID,916.464,VALID,0,VALID,100,VALID,-0.0509425,VALID,19.6484,VALID,125,VALID,1.71391,
2007-05-28, 00:39:00,VALID,916.424,VALID,0,VALID,100,VALID,-0.0509425,VALID,19.6609,VALID,127,VALID,1.53086,
2007-05-28, 00:40:00,VALID,916.389,VALID,0,VALID,100,VALID,-0.0339617,VALID,19.6641,VALID,139,VALID,1.34316,
2007-05-28, 00:41:00,VALID,916.378,VALID,0,VALID,100,VALID,-0.0339617,VALID,19.6606,VALID,143,VALID,1.44048,
2007-05-28, 00:42:00,VALID,916.353,VALID,0,VALID,100,VALID,-0.0509425,VALID,19.6639,VALID,136,VALID,1.60733,
2007-05-28, 00:43:00,VALID,916.367,VALID,0,VALID,100,VALID,-0.0169808,VALID,19.6571,VALID,141,VALID,1.36937,
2007-05-28, 00:44:00,VALID,916.367,VALID,0,VALID,100,VALID,-0.0169808,VALID,19.6604,VALID,140,VALID,1.45553,
2007-05-28, 00:45:00,VALID,916.369,VALID,0,VALID,100,VALID,-0.0169808,VALID,19.6639,VALID,122,VALID,1.27876,
2007-05-28, 00:46:00,VALID,916.374,VALID,0,VALID,100,VALID,0,VALID,19.6604,VALID,135,VALID,1.27489,
2007-05-28, 00:47:00,VALID,916.376,VALID,0,VALID,100,VALID,-0.0339617,VALID,19.6768,VALID,133,VALID,1.45368,
2007-05-28, 00:48:00,VALID,916.373,VALID,0,VALID,100,VALID,0,VALID,19.6833,VALID,133,VALID,1.34434,
2007-05-28, 00:49:00,VALID,916.342,VALID,0,VALID,100,VALID,0,VALID,19.6801,VALID,139,VALID,1.28832,
2007-05-28, 00:50:00,VALID,916.327,VALID,0,VALID,100,VALID,-0.0169808,VALID,19.6803,VALID,128,VALID,1.12322,
2007-05-28, 00:51:00,VALID,916.312,VALID,0,VALID,100,VALID,-0.0339617,VALID,19.6833,VALID,141,VALID,1.18341,
2007-05-28, 00:52:00,VALID,916.289,VALID,0,VALID,100,VALID,-0.0339617,VALID,19.6833,VALID,128,VALID,1.49141,
2007-05-28, 00:53:00,VALID,916.271,VALID,0,VALID,100,VALID,-0.0169808,VALID,19.6866,VALID,133,VALID,0.876953,
2007-05-28, 00:54:00,VALID,916.269,VALID,0,VALID,100,VALID,-0.0339617,VALID,19.6741,VALID,105,VALID,0.754092,
2007-05-28, 00:55:00,VALID,916.266,VALID,0,VALID,100,VALID,0,VALID,19.6571,VALID,96,VALID,0.891667,
2007-05-28, 00:56:00,VALID,916.279,VALID,0,VALID,100,VALID,0,VALID,19.6506,VALID,66,VALID,0.829241,
2007-05-28, 00:57:00,VALID,916.273,VALID,0,VALID,100,VALID,-0.0509425,VALID,19.6414,VALID,87,VALID,0.459147,
2007-05-28, 00:58:00,VALID,916.275,VALID,0,VALID,100,VALID,0,VALID,19.6179,VALID,101,VALID,0.798549,
2007-05-28, 00:59:00,VALID,916.253,VALID,0,VALID,100,VALID,0,VALID,19.6282,VALID,119,VALID,0.82758,
2007-05-28, 01:00:00,VALID,916.229,VALID,0,VALID,100,VALID,-0.0169808,VALID,19.6349,VALID,122,VALID,0.623224,
2007-05-28, 01:01:00,VALID,916.197,VALID,0,VALID,100,VALID,-0.0169808,VALID,19.6249,VALID,115,VALID,0.865589,
2007-05-28, 01:02:00,VALID,916.177,VALID,0,VALID,100,VALID,-0.0679233,VALID,19.6344,VALID,84,VALID,0.509673,
2007-05-28, 01:03:00,VALID,916.175,VALID,0,VALID,100,VALID,-0.0169808,VALID,19.6249,VALID,102,VALID,0.417111,
2007-05-28, 01:04:00,VALID,916.186,VALID,0,VALID,100,VALID,-0.0339617,VALID,19.6152,VALID,119,VALID,0.289249,
2007-05-28, 01:05:00,VALID,916.18,VALID,0,VALID,100,VALID,-0.0169808,VALID,19.6119,VALID,121,VALID,0,
2007-05-28, 01:06:00,VALID,916.204,VALID,0,VALID,100,VALID,-0.0169808,VALID,19.5925,VALID,121,VALID,0.046875,
2007-05-28, 01:07:00,VALID,916.204,VALID,0,VALID,100,VALID,0,VALID,19.5892,VALID,121,VALID,0.26399,
2007-05-28, 01:08:00,VALID,916.221,VALID,0,VALID,100,VALID,-0.0169808,VALID,19.5695,VALID,121,VALID,0.0791903,
2007-05-28, 01:09:00,VALID,916.241,VALID,0,VALID,100,VALID,-0.0339617,VALID,19.563,VALID,106,VALID,0.36447,
2007-05-28, 01:10:00,VALID,916.238,VALID,0,VALID,100,VALID,-0.0339617,VALID,19.563,VALID,72,VALID,0.524926,
2007-05-28, 01:11:00,VALID,916.236,VALID,0,VALID,100,VALID,0,VALID,19.5179,VALID,80,VALID,0.617188,
2007-05-28, 01:12:00,VALID,916.226,VALID,0,VALID,100,VALID,0.0169808,VALID,19.5014,VALID,85,VALID,0.606213,
2007-05-28, 01:13:00,VALID,916.226,VALID,0,VALID,100,VALID,0,VALID,19.4979,VALID,89,VALID,0.572218,
2007-05-28, 01:14:00,VALID,916.215,VALID,0,VALID,100,VALID,-0.0169808,VALID,19.4724,VALID,87,VALID,0.594658,
2007-05-28, 01:15:00,VALID,916.22,VALID,0,VALID,100,VALID,0,VALID,19.4689,VALID,85,VALID,0.720203,
2007-05-28, 01:16:00,VALID,916.216,VALID,0,VALID,100,VALID,0,VALID,19.4914,VALID,105,VALID,0.938453,
2007-05-28, 01:17:00,VALID,916.232,VALID,0,VALID,100,VALID,0,VALID,19.5209,VALID,108,VALID,1.00036,
2007-05-28, 01:18:00,VALID,916.227,VALID,0,VALID,100,VALID,0,VALID,19.5501,VALID,103,VALID,0.880149,
2007-05-28, 01:19:00,VALID,916.243,VALID,0,VALID,100,VALID,-0.0169808,VALID,19.5628,VALID,101,VALID,0.742708,
2007-05-28, 01:20:00,VALID,916.259,VALID,0,VALID,100,VALID,-0.0169808,VALID,19.5793,VALID,103,VALID,0.714753,
2007-05-28, 01:21:00,VALID,916.28,VALID,0,VALID,100,VALID,0,VALID,19.5922,VALID,118,VALID,1.15309,
2007-05-28, 01:22:00,VALID,916.302,VALID,0,VALID,100,VALID,-0.0339617,VALID,19.6149,VALID,122,VALID,1.37148,
2007-05-28, 01:23:00,VALID,916.315,VALID,0,VALID,100,VALID,-0.0169808,VALID,19.6412,VALID,126,VALID,1.11772,
2007-05-28, 01:24:00,VALID,916.319,VALID,0,VALID,100,VALID,-0.0169808,VALID,19.6409,VALID,135,VALID,1.08313,
2007-05-28, 01:25:00,VALID,916.322,VALID,0,VALID,100,VALID,0,VALID,19.6409,VALID,136,VALID,1.12715,
2007-05-28, 01:26:00,VALID,916.339,VALID,0,VALID,100,VALID,-0.0169808,VALID,19.6474,VALID,126,VALID,0.890811,
2007-05-28, 01:27:00,VALID,916.332,VALID,0,VALID,100,VALID,-0.0509425,VALID,19.6214,VALID,98,VALID,0.752976,
2007-05-28, 01:28:00,VALID,916.332,VALID,0,VALID,100,VALID,-0.0169808,VALID,19.5955,VALID,107,VALID,0.848958,
2007-05-28, 01:29:00,VALID,916.315,VALID,0,VALID,100,VALID,0,VALID,19.5818,VALID,110,VALID,0.919531,
2007-05-28, 01:30:00,VALID,916.303,VALID,0,VALID,100,VALID,0.0169808,VALID,19.585,VALID,124,VALID,1.21532,
2007-05-28, 01:31:00,VALID,916.281,VALID,0,VALID,100,VALID,0.0339617,VALID,19.6007,VALID,130,VALID,1.29844,
2007-05-28, 01:32:00,VALID,916.273,VALID,0,VALID,100,VALID,0,VALID,19.6007,VALID,138,VALID,1.08594,
2007-05-28, 01:33:00,VALID,916.264,VALID,0,VALID,100,VALID,0.0169808,VALID,19.608,VALID,142,VALID,1.26242,
2007-05-28, 01:34:00,VALID,916.268,VALID,0,VALID,100,VALID,0.0169808,VALID,19.6045,VALID,144,VALID,1.02035,
2007-05-28, 01:35:00,VALID,916.277,VALID,0,VALID,100,VALID,0.0169808,VALID,19.6007,VALID,154,VALID,1.07222,
2007-05-28, 01:36:00,VALID,916.299,VALID,0,VALID,100,VALID,0.0339617,VALID,19.6179,VALID,157,VALID,0.969638,
2007-05-28, 01:37:00,VALID,916.327,VALID,0,VALID,100,VALID,0.0339617,VALID,19.614,VALID,144,VALID,0.795945,
2007-05-28, 01:38:00,VALID,916.34,VALID,0,VALID,100,VALID,0.0509425,VALID,19.6272,VALID,142,VALID,0.669085,
2007-05-28, 01:39:00,VALID,916.349,VALID,0,VALID,100,VALID,0.0509425,VALID,19.6277,VALID,141,VALID,0.695513,
2007-05-28, 01:40:00,VALID,916.348,VALID,0,VALID,100,VALID,0,VALID,19.6272,VALID,141,VALID,0.678385,
2007-05-28, 01:41:00,VALID,916.346,VALID,0,VALID,100,VALID,0.0339617,VALID,19.6304,VALID,150,VALID,0.655705,
2007-05-28, 01:42:00,VALID,916.317,VALID,0,VALID,100,VALID,0.0169808,VALID,19.6499,VALID,156,VALID,0.709666,
2007-05-28, 01:43:00,VALID,916.315,VALID,0,VALID,100,VALID,0.0339617,VALID,19.6666,VALID,171,VALID,0.734375,
2007-05-28, 01:44:00,VALID,916.297,VALID,0,VALID,100,VALID,-0.0169808,VALID,19.6708,VALID,156,VALID,0.85774,
2007-05-28, 01:45:00,VALID,916.272,VALID,0,VALID,100,VALID,-0.0849042,VALID,19.6743,VALID,161,VALID,0.524414,
2007-05-28, 01:46:00,VALID,916.248,VALID,0,VALID,100,VALID,-0.0679233,VALID,19.6611,VALID,160,VALID,0.57976,
2007-05-28, 01:47:00,VALID,916.233,VALID,0,VALID,100,VALID,-0.0679233,VALID,19.6444,VALID,157,VALID,0.788517,
2007-05-28, 01:48:00,VALID,916.218,VALID,0,VALID,100,VALID,-0.0339617,VALID,19.6481,VALID,141,VALID,1.01962,
2007-05-28, 01:49:00,VALID,916.216,VALID,0,VALID,100,VALID,-0.0679233,VALID,19.6616,VALID,140,VALID,1.00145,
2007-05-28, 01:50:00,VALID,916.215,VALID,0,VALID,100,VALID,-0.0509425,VALID,19.6416,VALID,136,VALID,1.03871,
2007-05-28, 01:51:00,VALID,916.193,VALID,0,VALID,100,VALID,-0.0679233,VALID,19.6481,VALID,138,VALID,1.14323,
2007-05-28, 01:52:00,VALID,916.178,VALID,0,VALID,100,VALID,-0.0849042,VALID,19.6516,VALID,143,VALID,0.749273,
2007-05-28, 01:53:00,VALID,916.147,VALID,0,VALID,100,VALID,-0.118866,VALID,19.6586,VALID,138,VALID,0.913132,
2007-05-28, 01:54:00,VALID,916.139,VALID,0,VALID,100,VALID,-0.101885,VALID,19.6491,VALID,146,VALID,0.973011,
2007-05-28, 01:55:00,VALID,916.136,VALID,0,VALID,100,VALID,-0.101885,VALID,19.6521,VALID,152,VALID,0.955915,
2007-05-28, 01:56:00,VALID,916.133,VALID,0,VALID,100,VALID,-0.101885,VALID,19.6586,VALID,149,VALID,0.9375,
2007-05-28, 01:57:00,VALID,916.141,VALID,0,VALID,100,VALID,-0.101885,VALID,19.6551,VALID,153,VALID,0.965774,
2007-05-28, 01:58:00,VALID,916.123,VALID,0,VALID,100,VALID,-0.0679233,VALID,19.6424,VALID,160,VALID,0.732701,
2007-05-28, 01:59:00,VALID,916.096,VALID,0,VALID,100,VALID,-0.0339617,VALID,19.6219,VALID,153,VALID,0.827744,
2007-05-28, 02:00:00,VALID,916.083,VALID,0,VALID,100,VALID,0.0339617,VALID,19.601,VALID,153,VALID,1.27858,
2007-05-28, 02:01:00,VALID,916.054,VALID,0,VALID,100,VALID,0,VALID,19.595,VALID,146,VALID,1.13638,
2007-05-28, 02:02:00,VALID,916.031,VALID,0,VALID,100,VALID,0.0339617,VALID,19.5855,VALID,151,VALID,1.01545,
2007-05-28, 02:03:00,VALID,916.004,VALID,0,VALID,100,VALID,0.0169808,VALID,19.5693,VALID,148,VALID,1.12984,
2007-05-28, 02:04:00,VALID,915.995,VALID,0,VALID,100,VALID,0.0169808,VALID,19.5523,VALID,148,VALID,1.23531,
2007-05-28, 02:05:00,VALID,915.982,VALID,0,VALID,100,VALID,0,VALID,19.5463,VALID,143,VALID,1.0364,
2007-05-28, 02:06:00,VALID,915.982,VALID,0,VALID,100,VALID,0,VALID,19.5466,VALID,148,VALID,0.68968,
2007-05-28, 02:07:00,VALID,915.984,VALID,0,VALID,100,VALID,-0.0169808,VALID,19.5301,VALID,153,VALID,0.827106,
2007-05-28, 02:08:00,VALID,915.996,VALID,0,VALID,100,VALID,0,VALID,19.5236,VALID,142,VALID,1.01246,
2007-05-28, 02:09:00,VALID,915.995,VALID,0,VALID,100,VALID,0.0169808,VALID,19.5204,VALID,140,VALID,1.123,
2007-05-28, 02:10:00,VALID,915.999,VALID,0,VALID,100,VALID,0,VALID,19.5206,VALID,149,VALID,0.684152,
2007-05-28, 02:11:00,VALID,915.996,VALID,0,VALID,100,VALID,0.0169808,VALID,19.5144,VALID,149,VALID,0.443452,
2007-05-28, 02:12:00,VALID,915.963,VALID,0,VALID,100,VALID,0.0169808,VALID,19.5046,VALID,155,VALID,0.66311,
2007-05-28, 02:13:00,VALID,915.943,VALID,0,VALID,100,VALID,0.0169808,VALID,19.5009,VALID,149,VALID,0.892948,
2007-05-28, 02:14:00,VALID,915.935,VALID,0,VALID,100,VALID,-0.0679233,VALID,19.5024,VALID,148,VALID,0.971058,
2007-05-28, 02:15:00,VALID,915.9,VALID,0,VALID,100,VALID,-0.101885,VALID,19.5029,VALID,150,VALID,1.17272,
2007-05-28, 02:16:00,VALID,915.888,VALID,0,VALID,100,VALID,-0.101885,VALID,19.4922,VALID,143,VALID,1.13072,
2007-05-28, 02:17:00,VALID,915.885,VALID,0,VALID,100,VALID,-0.0849042,VALID,19.4986,VALID,142,VALID,1.23382,
2007-05-28, 02:18:00,VALID,915.858,VALID,0,VALID,100,VALID,-0.0849042,VALID,19.5186,VALID,137,VALID,0.911644,
2007-05-28, 02:19:00,VALID,915.845,VALID,0,VALID,100,VALID,-0.101885,VALID,19.5056,VALID,142,VALID,0.703869,
2007-05-28, 02:20:00,VALID,915.859,VALID,0,VALID,100,VALID,-0.101885,VALID,19.5151,VALID,154,VALID,0.671354,
2007-05-28, 02:21:00,VALID,915.849,VALID,0,VALID,100,VALID,-0.0339617,VALID,19.5181,VALID,152,VALID,0.962936,
2007-05-28, 02:22:00,VALID,915.849,VALID,0,VALID,100,VALID,-0.0339617,VALID,19.5341,VALID,157,VALID,0.968006,
2007-05-28, 02:23:00,VALID,915.845,VALID,0,VALID,100,VALID,-0.0849042,VALID,19.5476,VALID,163,VALID,0.834263,
2007-05-28, 02:24:00,VALID,915.844,VALID,0,VALID,100,VALID,-0.0849042,VALID,19.5608,VALID,160,VALID,0.736793,
2007-05-28, 02:25:00,VALID,915.848,VALID,0,VALID,100,VALID,-0.0849042,VALID,19.5608,VALID,150,VALID,0.700267,
2007-05-28, 02:26:00,VALID,915.85,VALID,0,VALID,100,VALID,-0.101885,VALID,19.5473,VALID,149,VALID,0.538872,
2007-05-28, 02:27:00,VALID,915.866,VALID,0,VALID,100,VALID,-0.101885,VALID,19.5575,VALID,148,VALID,0.605945,
2007-05-28, 02:28:00,VALID,915.867,VALID,0,VALID,100,VALID,-0.0849042,VALID,19.5568,VALID,139,VALID,0.359561,
2007-05-28, 02:29:00,VALID,915.86,VALID,0,VALID,100,VALID,-0.0339617,VALID,19.58,VALID,140,VALID,0.465774,
2007-05-28, 02:30:00,VALID,915.856,VALID,0,VALID,100,VALID,-0.0679233,VALID,19.59,VALID,140,VALID,0.648047,
2007-05-28, 02:31:00,VALID,915.855,VALID,0,VALID,100,VALID,-0.0679233,VALID,19.586,VALID,140,VALID,0.433594,
2007-05-28, 02:32:00,VALID,915.866,VALID,0,VALID,100,VALID,-0.0849042,VALID,19.5932,VALID,142,VALID,0.670387,
2007-05-28, 02:33:00,VALID,915.863,VALID,0,VALID,100,VALID,-0.0849042,VALID,19.5992,VALID,146,VALID,0.511347,
2007-05-28, 02:34:00,VALID,915.872,VALID,0,VALID,100,VALID,-0.0849042,VALID,19.6122,VALID,146,VALID,0.247396,
2007-05-28, 02:35:00,VALID,915.876,VALID,0,VALID,100,VALID,-0.101885,VALID,19.6124,VALID,143,VALID,0.527244,
2007-05-28, 02:36:00,VALID,915.891,VALID,0,VALID,100,VALID,-0.0509425,VALID,19.6055,VALID,142,VALID,0.56343,
2007-05-28, 02:37:00,VALID,915.903,VALID,0,VALID,100,VALID,-0.0849042,VALID,19.6219,VALID,142,VALID,0.495094,
2007-05-28, 02:38:00,VALID,915.915,VALID,0,VALID,100,VALID,-0.0509425,VALID,19.6317,VALID,142,VALID,0.68821,
2007-05-28, 02:39:00,VALID,915.916,VALID,0,VALID,100,VALID,-0.0849042,VALID,19.6282,VALID,143,VALID,0.734747,
2007-05-28, 02:40:00,VALID,915.889,VALID,0,VALID,100,VALID,-0.101885,VALID,19.6484,VALID,147,VALID,0.996652,
2007-05-28, 02:41:00,VALID,915.87,VALID,0,VALID,100,VALID,-0.0679233,VALID,19.6317,VALID,154,VALID,1.21075,
2007-05-28, 02:42:00,VALID,915.863,VALID,0,VALID,100,VALID,-0.0679233,VALID,19.6317,VALID,152,VALID,0.968572,
2007-05-28, 02:43:00,VALID,915.834,VALID,0,VALID,100,VALID,-0.0679233,VALID,19.6219,VALID,160,VALID,0.901344,
2007-05-28, 02:44:00,VALID,915.817,VALID,0,VALID,100,VALID,0.0169808,VALID,19.598,VALID,155,VALID,0.835582,
2007-05-28, 02:45:00,VALID,915.805,VALID,0,VALID,100,VALID,0.0339617,VALID,19.5915,VALID,150,VALID,0.640988,
2007-05-28, 02:46:00,VALID,915.776,VALID,0,VALID,100,VALID,0.0169808,VALID,19.588,VALID,162,VALID,0.53016,
2007-05-28, 02:47:00,VALID,915.77,VALID,0,VALID,100,VALID,0,VALID,19.5952,VALID,130,VALID,0.620028,
2007-05-28, 02:48:00,VALID,915.751,VALID,0,VALID,100,VALID,0.0169808,VALID,19.5912,VALID,108,VALID,0.5266,
2007-05-28, 02:49:00,VALID,915.743,VALID,0,VALID,100,VALID,0.0169808,VALID,19.5718,VALID,87,VALID,0.604581,
2007-05-28, 02:50:00,VALID,915.734,VALID,0,VALID,100,VALID,0.0509425,VALID,19.5785,VALID,102,VALID,0.845424,
2007-05-28, 02:51:00,VALID,915.724,VALID,0,VALID,100,VALID,0.0169808,VALID,19.5947,VALID,104,VALID,0.868118,
2007-05-28, 02:52:00,VALID,915.716,VALID,0,VALID,100,VALID,0.0169808,VALID,19.6075,VALID,105,VALID,0.947173,
2007-05-28, 02:53:00,VALID,915.706,VALID,0,VALID,100,VALID,0,VALID,19.601,VALID,126,VALID,1.31552,
2007-05-28, 02:54:00,VALID,915.711,VALID,0,VALID,100,VALID,0,VALID,19.6107,VALID,127,VALID,1.01504,
2007-05-28, 02:55:00,VALID,915.711,VALID,0,VALID,100,VALID,0.0169808,VALID,19.6112,VALID,102,VALID,0.706395,
2007-05-28, 02:56:00,VALID,915.713,VALID,0,VALID,100,VALID,0.0169808,VALID,19.5917,VALID,118,VALID,0.803597,
2007-05-28, 02:57:00,VALID,915.716,VALID,0,VALID,100,VALID,0,VALID,19.6012,VALID,124,VALID,0.704268,
2007-05-28, 02:58:00,VALID,915.721,VALID,0,VALID,100,VALID,0,VALID,19.6309,VALID,127,VALID,0.65625,
2007-05-28, 02:59:00,VALID,915.704,VALID,0,VALID,100,VALID,0.0509425,VALID,19.6242,VALID,125,VALID,0.877604,
2007-05-28, 03:00:00,VALID,915.711,VALID,0,VALID,100,VALID,0.0169808,VALID,19.6207,VALID,121,VALID,0.987282,
2007-05-28, 03:01:00,VALID,915.701,VALID,0,VALID,100,VALID,0,VALID,19.6179,VALID,122,VALID,0.806548,
2007-05-28, 03:02:00,VALID,915.694,VALID,0,VALID,100,VALID,0.0169808,VALID,19.614,VALID,124,VALID,0.874442,
2007-05-28, 03:03:00,VALID,915.675,VALID,0,VALID,100,VALID,0,VALID,19.6179,VALID,130,VALID,1.04821,
2007-05-28, 03:04:00,VALID,915.667,VALID,0,VALID,100,VALID,0.0339617,VALID,19.611,VALID,133,VALID,1.20922,
2007-05-28, 03:05:00,VALID,915.669,VALID,0,VALID,100,VALID,0.0169808,VALID,19.6179,VALID,129,VALID,1.08008,
2007-05-28, 03:06:00,VALID,915.666,VALID,0,VALID,100,VALID,0,VALID,19.6112,VALID,121,VALID,0.855741,
2007-05-28, 03:07:00,VALID,915.67,VALID,0,VALID,100,VALID,0.0339617,VALID,19.588,VALID,134,VALID,0.752544,
2007-05-28, 03:08:00,VALID,915.677,VALID,0,VALID,100,VALID,0.0169808,VALID,19.5912,VALID,147,VALID,0.831836,
2007-05-28, 03:09:00,VALID,915.686,VALID,0,VALID,100,VALID,0.0169808,VALID,19.6147,VALID,149,VALID,0.95419,
2007-05-28, 03:10:00,VALID,915.675,VALID,0,VALID,100,VALID,0,VALID,19.6077,VALID,151,VALID,0.878736,
2007-05-28, 03:11:00,VALID,915.693,VALID,0,VALID,100,VALID,0.0169808,VALID,19.591,VALID,155,VALID,0.792614,
2007-05-28, 03:12:00,VALID,915.688,VALID,0,VALID,100,VALID,0,VALID,19.5758,VALID,157,VALID,0.946875,
2007-05-28, 03:13:00,VALID,915.668,VALID,0,VALID,100,VALID,0,VALID,19.5563,VALID,157,VALID,0.750727,
2007-05-28, 03:14:00,VALID,915.681,VALID,0,VALID,100,VALID,0.0169808,VALID,19.5401,VALID,146,VALID,0.909157,
2007-05-28, 03:15:00,VALID,915.677,VALID,0,VALID,100,VALID,0.0509425,VALID,19.5169,VALID,140,VALID,1.10312,
2007-05-28, 03:16:00,VALID,915.677,VALID,0,VALID,100,VALID,0.101885,VALID,19.5099,VALID,138,VALID,1.04506,
2007-05-28, 03:17:00,VALID,915.694,VALID,0,VALID,100,VALID,0.0169808,VALID,19.5139,VALID,136,VALID,1.28555,
2007-05-28, 03:18:00,VALID,915.699,VALID,0,VALID,100,VALID,0.0339617,VALID,19.5366,VALID,134,VALID,1.41637,
2007-05-28, 03:19:00,VALID,915.701,VALID,0,VALID,100,VALID,0.0339617,VALID,19.5391,VALID,127,VALID,1.16348,
2007-05-28, 03:20:00,VALID,915.703,VALID,0,VALID,100,VALID,0.0509425,VALID,19.5521,VALID,136,VALID,1.14989,
2007-05-28, 03:21:00,VALID,915.702,VALID,0,VALID,100,VALID,0.0339617,VALID,19.5523,VALID,142,VALID,0.869474,
2007-05-28, 03:22:00,VALID,915.717,VALID,0,VALID,100,VALID,0,VALID,19.5583,VALID,147,VALID,0.800223,
2007-05-28, 03:23:00,VALID,915.717,VALID,0,VALID,100,VALID,0.0509425,VALID,19.5685,VALID,137,VALID,0.693314,
2007-05-28, 03:24:00,VALID,915.723,VALID,0,VALID,100,VALID,0.0509425,VALID,19.582,VALID,145,VALID,0.808594,
2007-05-28, 03:25:00,VALID,915.728,VALID,0,VALID,100,VALID,0.0339617,VALID,19.5813,VALID,134,VALID,0.981889,
2007-05-28, 03:26:00,VALID,915.744,VALID,0,VALID,100,VALID,0.0339617,VALID,19.5845,VALID,137,VALID,0.644626,
2007-05-28, 03:27:00,VALID,915.734,VALID,0,VALID,100,VALID,0.0679233,VALID,19.588,VALID,132,VALID,0.718924,
2007-05-28, 03:28:00,VALID,915.745,VALID,0,VALID,100,VALID,0.0509425,VALID,19.5813,VALID,116,VALID,1.0785,
2007-05-28, 03:29:00,VALID,915.743,VALID,0,VALID,100,VALID,-0.0169808,VALID,19.5855,VALID,118,VALID,1.07465,
2007-05-28, 03:30:00,VALID,915.741,VALID,0,VALID,100,VALID,-0.0339617,VALID,19.5935,VALID,116,VALID,0.994141,
2007-05-28, 03:31:00,VALID,915.741,VALID,0,VALID,100,VALID,-0.0509425,VALID,19.5865,VALID,108,VALID,1.20946,
2007-05-28, 03:32:00,VALID,915.732,VALID,0,VALID,100,VALID,-0.0169808,VALID,19.5763,VALID,109,VALID,1.36621,
2007-05-28, 03:33:00,VALID,915.707,VALID,0,VALID,100,VALID,-0.0339617,VALID,19.56,VALID,116,VALID,1.10007,
2007-05-28, 03:34:00,VALID,915.68,VALID,0,VALID,100,VALID,0,VALID,19.5501,VALID,122,VALID,0.896257,
2007-05-28, 03:35:00,VALID,915.66,VALID,0,VALID,100,VALID,-0.0509425,VALID,19.5338,VALID,128,VALID,1.27363,
2007-05-28, 03:36:00,VALID,915.63,VALID,0,VALID,100,VALID,-0.0169808,VALID,19.5174,VALID,148,VALID,1.25352,
2007-05-28, 03:37:00,VALID,915.613,VALID,0,VALID,100,VALID,-0.0169808,VALID,19.5176,VALID,152,VALID,0.864329,
2007-05-28, 03:38:00,VALID,915.594,VALID,0,VALID,100,VALID,-0.0169808,VALID,19.5146,VALID,138,VALID,1.27148,
2007-05-28, 03:39:00,VALID,915.579,VALID,0,VALID,100,VALID,-0.0169808,VALID,19.5149,VALID,139,VALID,1.07535,